Flag for Dominican Republic Weather past 2 weeks in Punta Cana, Dominican Republic

82 °F

Passing clouds.

Feels Like: 91 °F
Forecast: 80 / 89 °F
Wind: 7 mph from Southwest

Location: Punta Cana

Current Time: Oct 5, 2015 at 12:45:42 AM

Latest Report: Oct 5, 2015 at 12:00 AM

Visibility: N/A

Pressure: 29.92 "Hg

Humidity: 84%

Dew point: 77 °F

Location of Punta CanaLocation

Historic Weather in Punta Cana — Graph


Punta Cana temperature yesterday

Maximum temperature yesterday: 102 °F (at 7:00 PM)
Minimum temperature yesterday: 81 °F (at 5:00 AM)
Average temperature yesterday: 85 °F

Past Weeks' High & Low Weather Summary

High102 °F (Oct 4, 7:00 PM)100% (Sep 21, 6:00 AM)30.04 "Hg (Sep 21, 6:00 AM)
Low36 °F (Sep 27, 7:00 PM)45% (Oct 4, 7:00 PM)29.71 "Hg (Oct 1, 2:00 PM)
Average83 °F81%29.86 "Hg
* Reported Sep 19 11:00 PM — Oct 4 11:00 PM, Punta Cana, Weather by CustomWeather, © 2015

Note: Actual official high and low records may vary slightly from our data, if they occured in-between our weather recording intervals... More about our weather records


Punta Cana weather history for previous 24 hours

Time TempWeatherWind HumidityBarometerVisibility
11:00 PM
Sun, Oct 4
82 °FPassing clouds.No wind84%29.92 "HgN/A
10:00 PM82 °FPassing clouds.7 mph84%29.92 "HgN/A
9:00 PM82 °FPassing clouds.6 mph84%29.89 "HgN/A
8:00 PM82 °FPassing clouds.9 mph74%29.89 "HgN/A
7:00 PM102 °FPassing clouds.8 mph45%29.86 "HgN/A
6:00 PM84 °FScattered clouds.13 mph84%29.86 "HgN/A
5:00 PM86 °FScattered clouds.13 mph79%29.95 "HgN/A
4:00 PM88 °FScattered clouds.14 mph75%29.86 "HgN/A
3:00 PM88 °FScattered showers. Scattered clouds.15 mph79%29.86 "Hg5 mi
2:00 PM88 °FScattered clouds.7 mph79%29.86 "HgN/A
1:00 PM88 °FBroken clouds.12 mph79%29.89 "HgN/A
12:00 PM86 °FBroken clouds.12 mph84%29.89 "HgN/A
11:00 AM82 °FLight rain. Broken clouds.7 mph94%29.92 "Hg5 mi
10:00 AM88 °FPartly sunny.12 mph75%29.92 "HgN/A
9:00 AM86 °FPartly sunny.9 mph79%29.89 "HgN/A
8:00 AM84 °FPartly sunny.9 mph84%29.86 "HgN/A
6:00 AM82 °FPassing clouds.5 mph89%29.83 "HgN/A
5:00 AM81 °FPassing clouds.5 mph94%29.80 "HgN/A
4:00 AM82 °FPassing clouds.7 mph89%29.80 "HgN/A
3:00 AM82 °FPassing clouds.8 mph89%29.83 "HgN/A
2:00 AM82 °FPassing clouds.8 mph89%29.83 "HgN/A
1:00 AM82 °FPassing clouds.5 mph89%29.86 "HgN/A
12:00 AM82 °FPassing clouds.8 mph89%29.86 "HgN/A
Weather by CustomWeather, © 2015

See weather overviewHow to use our weather pages